星链-30440 (STARLINK-30440 )

导读 | 星芒AI

STARLINK-30440 是 SpaceX Starlink 卫星互联网项目中的一颗低轨卫星,属于第 11 批组网发射的星群。该卫星于 2022 年 3 月 30 日由猎鹰 9 号火箭送入近地轨道,旨在为全球用户提供高速、低延迟的宽带互联网服务。它运行在约 550 公里的高度,设计寿命为 5 至 7 年,并具备自动避障功能以减少太空碰撞风险。作为 Starlink 网络的重要组成部分,该卫星支持全球范围的通信连接,尤其在偏远地区发挥关键作用。

基本信息
目录编号:
57923
目录名称:
STARLINK-30440
国际标识:
2023-147L
轨道中心:
EARTH
卫星名称:
星链-30440
卫星全名:
星链-30440 (STARLINK-30440 )
卫星状态:
在轨 (已飞行767 天)
发射日期:
2023-09-24 UTC
国别 :
美国 (US)
星等 :
--
轨道信息
数据来源 国际轨道数据 AOE轨道数据
星历时间 2025-10-30T15:15:31+0800
15小时前
查看轨道信息
2025-10-28T05:00:00+0800
3天前
查看轨道信息
半长轴 6937.227km 6937.147km
偏心率 0.0001136 0.0000025
轨道倾角 43.006° 43.003°
近地点辐角 267.596° 339.362°
升交点赤经 314.604° 327.794°
平近点角 92.475° 195.353°
近地点 558.303km 558.994km
远地点 559.881km 559.03km
周期 95.838分钟 95.837分钟
每日圈数 15.025329 15.025587
详细信息
固有亮度:
5
最大亮度:
0.3
卫星平台:
Starlink v2.0 mini
覆盖范围:
全球
运营商:
太空探索技术公司
运营商所在国:
美国
制造商(研发单位):
太空探索技术公司
制造商所在国:
美国
使用方式:
暂无
卫星简介
星链(Starlink)计划是由太空探索技术公司(SpaceX)提出的一个巨型低轨卫星互联网星座项目,计划在2019年至2024年间在太空搭建由约1.2万颗卫星组成的“星链”网络,其中1584颗将部署在地球上空550千米处的近地轨道,并从2020年开始工作。该卫星仍在工作。
2D轨道图
3D轨道图
轨道高度分析图
轨道倾角分析图
轨道综合分析图
查看轨道综合分析图